CZ-6A DEB, 56261

Orbit data source: Space-Track

CZ-6A DEB, 56261 is space debris in SSO originally from a launch on Fri, 11 Nov 2022 UTC launched from the Taiyaun Space Center, China (TSC). Debris objects in space refer to the collection of defunct objects orbiting the Earth. Examples of debris include non-operational satellites, rocket bodies, and fragments generated from explosions, collisions, or faulty payload assembly.

Loading next visibility...
Identifier
56261, 2022-151ACD
Orbit
SSO
Country
Flag of CNCN / PRC
Related business
Manufacturer
SAST
Mission
Spacecraft
Bus & Motor
Unknown
Mass
Unknown
Launch date (UTC)
2022-11-11 (4 years ago)
Launch vehicle
Unknown
Launch site
Taiyaun Space Center, China (TSC)
Object type
Payload
Rocket body
Debris
Shape & HBR
Unknown shape, 1.1 m
Radar Cross Section
Medium (>0.1 m² and <1 m²)

Expand to show TLE details & history
Last TLE update: 1 day ago

TLE from 1 day ago
0 CZ-6A DEB
1 56261U 22151ACD 26263.04845732  .00004097  00000-0  14343-2 0  9990
2 56261  98.7974 286.4933 0037355  14.2971 345.9262 14.35289064185601
Epoch: 2026-09-20T01:09Z
TLE epoch observation values (Epoch: 2026-09-20T01:09:46.712Z)
Latitude
-0°
Longitude
-89.89956°
Altitude
751.124 km
Speed
7.493 km/s
True Right ascension
19h 05m 58s
True Declination
0° 00' 00"
Sunlit
Object was in daylight at epoch
Visualization orbit readout
Latitude
Unknown
Longitude
Unknown
Altitude
Unknown
Speed
Unknown
Apparent Right ascension
Unknown
Apparent Declination
Unknown
Sunlit
N/A
Visualization observer readout
Local Sidereal Time
03:11:04
Azimuth
Unknown
Elevation
Unknown
Doppler factor
Unknown
Orbital elements
Apogee altitude
797.955 km
Perigee altitude
744.542 km
Semi-major axis
7,149.385 km
Eccentricity
0.00374
Inclination
98.7974°
RAAN
286.4933°
Arg. of periapsis
14.2971°
True anomaly
345.82164°
Mean anomaly
345.9262°
Eccentric anomaly
345.87397°
Mean motion
3.59038 °/min
Orbital period
100.27 mins
BSTAR
0.0014343
Loading maneuver chart data...
Computing Atmospheric mass density...
Loading historical data...
Loading historical data...
Loading historical data...
Loading historical data...
Loading historical data...
Loading historical data...
Loading historical data...

Documentation

Showing up to 5 results
|